• In Italy
  • List of Countries
  • For 7 days
  • Water Temperature
  • Satellite Maps
  • Weather Map
  • Weather Widgets
  • user-avatar
    Login

    Hourly Weather Hadera

    Today, 19 November, Sunday

    Time Temperature Precipitation Wind Pressure Humidity
    00:00 +16°C° 0 mm 3 mps 716 mmHg 72%
    01:00 +16°C° 0 mm 3 mps 716 mmHg 75%
    02:00 +15°C° 0 mm 4 mps 715 mmHg 77%
    03:00 +15°C° 0 mm 4 mps 715 mmHg 81%
    04:00 +15°C° 0 mm 4 mps 715 mmHg 84%
    05:00 +15°C° 0 mm 4 mps 715 mmHg 88%
    06:00 +15°C° 0.1 mm 4 mps 716 mmHg 87%
    07:00 +17°C° 0.1 mm 4 mps 716 mmHg 86%
    08:00 +17°C° 0.1 mm 4 mps 716 mmHg 85%
    09:00 +17°C° 0.1 mm 5 mps 716 mmHg 79%
    10:00 +17°C° 0.1 mm 5 mps 716 mmHg 73%
    11:00 +19°C° 0.1 mm 5 mps 717 mmHg 67%
    12:00 +19°C° 0 mm 5 mps 717 mmHg 66%
    13:00 +19°C° 0 mm 4 mps 717 mmHg 64%
    14:00 +19°C° 0 mm 4 mps 717 mmHg 63%
    15:00 +18°C° 0 mm 4 mps 717 mmHg 65%
    16:00 +17°C° 0 mm 4 mps 716 mmHg 68%
    17:00 +15°C° 0 mm 4 mps 716 mmHg 70%
    18:00 +16°C° 0.1 mm 3 mps 717 mmHg 72%
    19:00 +16°C° 0.1 mm 3 mps 717 mmHg 74%
    20:00 +14°C° 0.1 mm 3 mps 717 mmHg 76%
    21:00 +14°C° 0.4 mm 3 mps 717 mmHg 78%
    22:00 +14°C° 0.4 mm 3 mps 717 mmHg 80%
    23:00 +14°C° 0.4 mm 4 mps 717 mmHg 82%

    Tomorrow, 20 November, Monday

    Time Temperature Precipitation Wind Pressure Humidity
    00:00 +14°C° 0.8 mm 3 mps 717 mmHg 83%
    01:00 +14°C° 0.8 mm 3 mps 717 mmHg 84%
    02:00 +14°C° 0.8 mm 3 mps 717 mmHg 85%
    03:00 +14°C° 1.1 mm 3 mps 717 mmHg 86%
    04:00 +14°C° 1.1 mm 2 mps 717 mmHg 87%
    05:00 +14°C° 1.1 mm 2 mps 717 mmHg 88%
    06:00 +14°C° 0.6 mm 2 mps 717 mmHg 86%
    07:00 +15°C° 0.6 mm 2 mps 717 mmHg 84%
    08:00 +15°C° 0.6 mm 2 mps 717 mmHg 82%
    09:00 +16°C° 0.3 mm 2 mps 717 mmHg 77%
    10:00 +17°C° 0.3 mm 2 mps 717 mmHg 73%
    11:00 +17°C° 0.3 mm 3 mps 717 mmHg 69%
    12:00 +18°C° 0.5 mm 3 mps 716 mmHg 68%
    13:00 +18°C° 0.5 mm 4 mps 716 mmHg 67%
    14:00 +18°C° 0.5 mm 4 mps 715 mmHg 67%
    15:00 +16°C° 0.9 mm 5 mps 715 mmHg 71%
    16:00 +15°C° 0.9 mm 5 mps 715 mmHg 76%
    17:00 +15°C° 0.9 mm 6 mps 715 mmHg 80%
    18:00 +15°C° 0.7 mm 6 mps 715 mmHg 82%
    19:00 +15°C° 0.7 mm 6 mps 715 mmHg 83%
    20:00 +14°C° 0.7 mm 6 mps 714 mmHg 84%
    21:00 +14°C° 0.5 mm 6 mps 714 mmHg 83%
    22:00 +14°C° 0.5 mm 6 mps 714 mmHg 83%
    23:00 +14°C° 0.5 mm 7 mps 714 mmHg 82%

    Day after tomorrow, 21 November, Tuesday

    Time Temperature Precipitation Wind Pressure Humidity
    00:00 +13°C° 0.7 mm 8 mps 713 mmHg 82%
    01:00 +13°C° 0.7 mm 9 mps 713 mmHg 83%
    02:00 +13°C° 0.7 mm 10 mps 712 mmHg 83%
    03:00 +12°C° 0.6 mm 11 mps 712 mmHg 78%
    04:00 +12°C° 0.6 mm 12 mps 711 mmHg 74%
    05:00 +12°C° 0.6 mm 13 mps 711 mmHg 69%
    06:00 +10°C° 0.1 mm 13 mps 711 mmHg 66%
    07:00 +10°C° 0.1 mm 12 mps 712 mmHg 63%
    08:00 +10°C° 0.1 mm 12 mps 712 mmHg 60%
    09:00 +12°C° 0 mm 12 mps 712 mmHg 58%
    10:00 +12°C° 0 mm 12 mps 713 mmHg 56%
    11:00 +13°C° 0 mm 12 mps 713 mmHg 54%
    12:00 +13°C° 0 mm 12 mps 713 mmHg 55%
    13:00 +13°C° 0 mm 11 mps 713 mmHg 56%
    14:00 +13°C° 0 mm 11 mps 713 mmHg 57%
    15:00 +12°C° 0 mm 10 mps 714 mmHg 58%
    16:00 +12°C° 0 mm 9 mps 714 mmHg 60%
    17:00 +11°C° 0 mm 8 mps 714 mmHg 61%
    18:00 +11°C° 0 mm 7 mps 715 mmHg 61%
    19:00 +11°C° 0 mm 6 mps 715 mmHg 60%
    20:00 +10°C° 0 mm 5 mps 716 mmHg 60%
    21:00 +10°C° 0 mm 5 mps 716 mmHg 59%
    22:00 +10°C° 0 mm 5 mps 716 mmHg 58%
    23:00 +10°C° 0 mm 5 mps 716 mmHg 57%

    22 November, Wednesday

    Time Temperature Precipitation Wind Pressure Humidity
    00:00 +10°C° 0 mm 5 mps 716 mmHg 57%
    01:00 +10°C° 0 mm 5 mps 716 mmHg 58%
    02:00 +9°C° 0 mm 6 mps 716 mmHg 58%
    03:00 +9°C° 0 mm 6 mps 716 mmHg 58%
    04:00 +9°C° 0 mm 6 mps 716 mmHg 58%
    05:00 +9°C° 0 mm 6 mps 716 mmHg 58%
    06:00 +9°C° 0 mm 5 mps 717 mmHg 56%
    07:00 +10°C° 0 mm 5 mps 717 mmHg 53%
    08:00 +11°C° 0 mm 4 mps 718 mmHg 51%
    09:00 +12°C° 0 mm 4 mps 718 mmHg 47%
    10:00 +13°C° 0 mm 4 mps 718 mmHg 43%
    11:00 +14°C° 0 mm 3 mps 718 mmHg 39%
    12:00 +14°C° 0 mm 3 mps 718 mmHg 39%
    13:00 +14°C° 0 mm 3 mps 718 mmHg 39%
    14:00 +14°C° 0 mm 3 mps 718 mmHg 39%
    15:00 +14°C° 0 mm 3 mps 718 mmHg 43%
    16:00 +13°C° 0 mm 3 mps 718 mmHg 46%
    17:00 +12°C° 0 mm 3 mps 719 mmHg 50%
    18:00 +11°C° 0 mm 3 mps 719 mmHg 52%
    19:00 +11°C° 0 mm 3 mps 719 mmHg 54%
    20:00 +12°C° 0 mm 2 mps 720 mmHg 56%
    21:00 +10°C° 0 mm 2 mps 720 mmHg 57%
    22:00 +10°C° 0 mm 2 mps 720 mmHg 58%
    23:00 +10°C° 0 mm 2 mps 720 mmHg 60%

    23 November, Thursday

    Time Temperature Precipitation Wind Pressure Humidity
    00:00 +10°C° 0 mm 2 mps 720 mmHg 60%
    01:00 +10°C° 0 mm 2 mps 720 mmHg 60%
    02:00 +9°C° 0 mm 2 mps 720 mmHg 60%
    03:00 +9°C° 0 mm 2 mps 720 mmHg 60%
    04:00 +10°C° 0 mm 1 mps 720 mmHg 60%
    05:00 +10°C° 0 mm 1 mps 720 mmHg 60%
    06:00 +11°C° 0 mm 1 mps 720 mmHg 57%
    07:00 +12°C° 0 mm 1 mps 721 mmHg 54%
    08:00 +13°C° 0 mm 1 mps 721 mmHg 52%
    09:00 +14°C° 0 mm 1 mps 721 mmHg 47%
    10:00 +15°C° 0 mm 1 mps 722 mmHg 42%
    11:00 +16°C° 0 mm 1 mps 722 mmHg 38%
    12:00 +16°C° 0 mm 1 mps 721 mmHg 38%
    13:00 +16°C° 0 mm 1 mps 721 mmHg 38%
    14:00 +16°C° 0 mm 1 mps 721 mmHg 38%
    15:00 +15°C° 0 mm 1 mps 721 mmHg 43%
    16:00 +14°C° 0 mm 1 mps 721 mmHg 47%
    17:00 +13°C° 0 mm 1 mps 721 mmHg 52%
    18:00 +13°C° 0 mm 1 mps 721 mmHg 53%
    19:00 +13°C° 0 mm 1 mps 721 mmHg 54%
    20:00 +12°C° 0 mm 1 mps 722 mmHg 55%
    21:00 +12°C° 0 mm 1 mps 722 mmHg 56%
    22:00 +12°C° 0 mm 1 mps 722 mmHg 56%
    23:00 +12°C° 0 mm 1 mps 722 mmHg 57%

    24 November, Friday

    Time Temperature Precipitation Wind Pressure Humidity
    00:00 +11°C° 0 mm 1 mps 722 mmHg 56%
    01:00 +11°C° 0 mm 1 mps 722 mmHg 55%
    02:00 +10°C° 0 mm 2 mps 721 mmHg 54%
    03:00 +10°C° 0 mm 2 mps 722 mmHg 55%
    04:00 +10°C° 0 mm 2 mps 722 mmHg 55%
    05:00 +10°C° 0 mm 2 mps 722 mmHg 56%
    06:00 +12°C° 0 mm 2 mps 722 mmHg 54%
    07:00 +13°C° 0 mm 2 mps 722 mmHg 53%
    08:00 +13°C° 0 mm 3 mps 723 mmHg 51%
    09:00 +15°C° 0 mm 2 mps 723 mmHg 47%
    10:00 +15°C° 0 mm 2 mps 723 mmHg 43%
    11:00 +16°C° 0 mm 2 mps 723 mmHg 39%
    12:00 +17°C° 0 mm 2 mps 723 mmHg 39%
    13:00 +17°C° 0 mm 2 mps 723 mmHg 39%
    14:00 +17°C° 0 mm 2 mps 722 mmHg 39%
    15:00 +16°C° 0 mm 2 mps 723 mmHg 44%
    16:00 +15°C° 0 mm 2 mps 723 mmHg 49%
    17:00 +14°C° 0 mm 2 mps 723 mmHg 54%
    18:00 +13°C° 0 mm 2 mps 723 mmHg 55%
    19:00 +13°C° 0 mm 2 mps 723 mmHg 57%
    20:00 +13°C° 0 mm 2 mps 723 mmHg 59%
    21:00 +12°C° 0 mm 2 mps 724 mmHg 60%
    22:00 +12°C° 0 mm 2 mps 724 mmHg 60%
    23:00 +12°C° 0 mm 2 mps 724 mmHg 61%
    Show more